Location: Unspecified
(0.0000°N, 0.0000°E)
Time: 19:12:44
(UTC+00:00)

XW-2F - Visible Passes

Search period start: 16 January 2018 00:00
Search period end: 26 January 2018 00:00
Orbit: 507 x 528 km, 97.5° (Epoch: 16 January)

Date Brightness Start Highest point End Pass type
(mag) Time Alt. Az. Time Alt. Az. Time Alt. Az.
16 Jan ? 05:05:41 10° ENE 05:08:10 17° ESE 05:10:40 10° SE visible
16 Jan ? 18:32:20 10° SW 18:34:53 17° WSW 18:37:26 10° WNW visible
17 Jan ? 04:53:26 10° E 04:53:53 10° ESE 04:54:20 10° ESE visible
20 Jan ? 05:41:07 10° NNE 05:44:47 71° E 05:48:30 10° S visible
21 Jan ? 05:27:01 10° NNE 05:30:29 39° ESE 05:33:59 10° S visible
22 Jan ? 05:13:14 10° NE 05:16:11 23° ESE 05:19:10 10° SSE visible
22 Jan ? 18:41:09 10° SW 18:42:55 13° WSW 18:44:42 10° WNW visible
23 Jan ? 04:59:56 10° ENE 05:01:53 14° ESE 05:03:52 10° SE visible
